Location: Tamazert
(32.6352°N, 5.2072°W)
Time: 22:18:15
(UTC+00:00)

ATLAS 5 CENTAUR R/B - Pass Details

Date: 22 May 2022
Orbit: 340 x 13897 km, 60.8° (Epoch: 21 June)

Event Time Altitude Azimuth Distance (km) Brightness Sun altitude
Rises 00:44:18 0° 324° (NW) 7,362 8.1 -36.6°
Reaches altitude 10° 00:51:40 10° 334° (NNW) 4,453 6.9 -36.4°
Maximum altitude 00:59:10 26° 28° (NNE) 1,659 4.7 -36.1°
Enters shadow 01:00:08 24° 48° (NE) 1,536 4.4 -36.0°
